Broken Bow, NE

8:30 PM CST on January 19, 2018 (GMT -0600)
Broken Bow Municipal

Weather History for KBBW - March, 2014

Change the Weather History Date:

Friday, March 21, 2014

  Actual Average Record
Temperature  
Mean Temperature 38 °F 40 °F  
Max Temperature 50 °F 53 °F 83 °F (1997)
Min Temperature 25 °F 26 °F -10 °F (1912)
Degree Days  
Heating Degree Days 27 25  
Month to date heating degree days 629 610  
Cooling Degree Days 0 0  
Month to date cooling degree days 0 0  
Year to date cooling degree days 0 0  
Moisture  
Dew Point 25 °F    
Average Humidity 57    
Maximum Humidity 75    
Minimum Humidity 39    
Precipitation  
Precipitation 0.00 in 0.05 in 0.50 in (1897)
Sea Level Pressure  
Sea Level Pressure 30.05 in    
Wind  
Wind Speed 20 mph (NNW)    
Max Wind Speed 32 mph    
Max Gust Speed 41 mph    
Visibility 10 miles    
Events      
T = Trace of Precipitation, MM = Missing Value Source: NWS Daily Summary

Daily Weather History Graph

Daily Weather History Graph

Search for Another Location

Airport or City:

Trip Planner

Search our weather history database for the weather conditions in past years. The results will help you decide how hot, cold, wet, or windy it might be!

Date:

Astronomy

Mar. 21, 2014 Rise Set
Actual Time 7:40 AM CDT 7:51 PM CDT
Civil Twilight 7:12 AM CDT 8:19 PM CDT
Nautical Twilight 6:40 AM CDT 8:51 PM CDT
Astronomical Twilight 6:07 AM CDT 9:25 PM CDT
Moon 12:15 AM CDT (3/21) 10:30 AM CDT (3/21)
Length of Visible Light 13h 07m
Length of Day
12h 11m
Waning Gibbous, 75% of the Moon is Illuminated
Mar 21
Waning Gibbous
Mar 23
Last Quarter
Mar 30
New
Apr 7
First Quarter
Apr 15
Full

Hourly Weather History & Observations

Time (CDT) Temp. Windchill Dew Point Humidity Pressure Visibility Wind Dir Wind Speed Gust Speed Precip Events Conditions
12:53 AM 39.9 °F 37.8 °F 18.0 °F 41% 29.76 in 10.0 mi Variable 3.5 mph - N/A   Clear
1:37 AM 45.0 °F 38.2 °F 21.0 °F 39% 29.80 in 10.0 mi West 15.0 mph 33.4 mph N/A   Squalls
1:49 AM 42.8 °F 33.1 °F 26.6 °F 53% 29.82 in 10.0 mi NW 25.3 mph 36.8 mph N/A   Clear
1:53 AM 43.0 °F 35.4 °F 26.1 °F 51% 29.83 in 10.0 mi NW 16.1 mph - N/A   Clear
2:53 AM 37.9 °F 28.2 °F 28.0 °F 68% 29.86 in 10.0 mi North 18.4 mph - N/A   Clear
3:53 AM 37.0 °F 29.3 °F 28.0 °F 70% 29.86 in 10.0 mi North 11.5 mph - N/A   Clear
4:53 AM 36.0 °F 26.3 °F 28.0 °F 73% 29.87 in 10.0 mi NNW 16.1 mph - N/A   Clear
5:53 AM 34.0 °F 25.0 °F 27.0 °F 75% 29.89 in 10.0 mi NNW 12.7 mph - N/A   Clear
6:53 AM 35.1 °F 25.2 °F 25.0 °F 67% 29.90 in 10.0 mi NNW 16.1 mph - N/A   Clear
7:53 AM 34.0 °F 24.2 °F 24.1 °F 67% 29.94 in 10.0 mi NNW 15.0 mph - N/A   Clear
8:53 AM 35.1 °F 25.5 °F 25.0 °F 67% 29.97 in 10.0 mi NNW 15.0 mph - N/A   Clear
9:53 AM 39.9 °F 29.5 °F 25.0 °F 55% 29.99 in 10.0 mi NNW 24.2 mph - N/A   Clear
10:53 AM 43.0 °F 33.5 °F 25.0 °F 49% 30.02 in 10.0 mi NNW 24.2 mph 34.5 mph N/A   Clear
11:53 AM 46.0 °F 37.2 °F 24.1 °F 42% 30.04 in 10.0 mi NNW 26.5 mph 35.7 mph N/A   Clear
12:53 PM 48.9 °F - 24.1 °F 38% 30.04 in 10.0 mi NNW 27.6 mph 34.5 mph N/A   Partly Cloudy
1:53 PM 48.9 °F - 25.0 °F 39% 30.05 in 10.0 mi NNW 31.1 mph 38.0 mph N/A   Clear
2:53 PM 46.9 °F - 25.0 °F 42% 30.07 in 10.0 mi NNW 28.8 mph 39.1 mph N/A   Scattered Clouds
3:53 PM 44.1 °F 35.4 °F 28.9 °F 55% 30.11 in 10.0 mi NNW 21.9 mph 33.4 mph N/A   Mostly Cloudy
4:53 PM 41.0 °F 30.7 °F 27.0 °F 57% 30.14 in 10.0 mi North 25.3 mph 34.5 mph N/A   Mostly Cloudy
5:53 PM 37.9 °F 26.3 °F 26.1 °F 62% 30.18 in 10.0 mi North 26.5 mph 33.4 mph N/A   Overcast
6:33 PM 37.0 °F 25.6 °F 26.1 °F 65% 30.15 in 10.0 mi North 24.2 mph 29.9 mph N/A   Overcast
6:53 PM 36.0 °F 24.2 °F 26.1 °F 67% 30.21 in 10.0 mi North 24.2 mph - N/A   Overcast
7:53 PM 34.0 °F 22.4 °F 25.0 °F 70% 30.24 in 10.0 mi North 20.7 mph 28.8 mph N/A   Overcast
8:53 PM 33.1 °F 21.5 °F 24.1 °F 70% 30.27 in 10.0 mi North 19.6 mph - N/A   Overcast
9:53 PM 32.0 °F 20.5 °F 23.0 °F 69% 30.28 in 10.0 mi North 18.4 mph - N/A   Overcast
10:53 PM 32.0 °F 20.5 °F 23.0 °F 69% 30.29 in 10.0 mi North 18.4 mph 26.5 mph N/A   Overcast
11:01 PM 30.9 °F 20.7 °F 23.0 °F 72% 30.24 in 10.0 mi North 13.8 mph 25.3 mph N/A   Overcast
11:20 PM 30.9 °F 21.2 °F 23.0 °F 72% 30.25 in 10.0 mi NNE 12.7 mph 23.0 mph N/A   Overcast
11:34 PM 28.9 °F 16.9 °F 21.9 °F 75% 30.26 in 10.0 mi North 17.3 mph 23.0 mph N/A   Overcast
11:53 PM 28.0 °F 16.1 °F 21.0 °F 75% 30.32 in 10.0 mi NNE 16.1 mph 27.6 mph N/A   Overcast